| time (UTC) | temp C | wind direction | speed KPH | gust KPH | rain 1hr cm | rain 24hr cm | rain mn cm | humidity % | barometer mb |
| 20260504215003 | 25 | 235 | 9.7 | 12.9 | 0.00 | 0.00 | 0.00 | 40 | 1010.1 |
| 20260504214458 | 25 | 181 | 4.8 | 4.8 | 0.00 | 0.00 | 0.00 | 43 | 1010.2 |
| 20260504213955 | 25 | 229 | 8.0 | 11.3 | 0.00 | 0.00 | 0.00 | 44 | 1010.1 |
| 20260504213451 | 25 | 236 | 11.3 | 16.1 | 0.00 | 0.00 | 0.00 | 47 | 1010.2 |
| 20260504212949 | 25 | 251 | 9.7 | 11.3 | 0.00 | 0.00 | 0.00 | 47 | 1010.2 |
| 20260504212444 | 25 | 275 | 4.8 | 8.0 | 0.00 | 0.00 | 0.00 | 49 | 1010.2 |
| 20260504211942 | 25 | 227 | 3.2 | 4.8 | 0.00 | 0.00 | 0.00 | 47 | 1010.3 |
| 20260504211438 | 25 | 206 | 8.0 | 11.3 | 0.00 | 0.00 | 0.00 | 48 | 1010.4 |
| 20260504210936 | 25 | 269 | 0.0 | 0.0 | 0.00 | 0.00 | 0.00 | 49 | 1010.4 |
| 20260504210432 | 24 | 251 | 4.8 | 4.8 | 0.00 | 0.00 | 0.00 | 50 | 1010.4 |
| 20260504205929 | 25 | 241 | 8.0 | 9.7 | 0.00 | 0.00 | 0.00 | 50 | 1010.7 |
| 20260504205427 | 25 | 249 | 9.7 | 11.3 | 0.00 | 0.00 | 0.00 | 49 | 1010.5 |
| 20260504204925 | 24 | 190 | 4.8 | 8.0 | 0.00 | 0.00 | 0.00 | 49 | 1010.6 |
| 20260504204423 | 24 | 246 | 6.4 | 9.7 | 0.00 | 0.00 | 0.00 | 48 | 1010.5 |
| 20260504203922 | 25 | 250 | 6.4 | 9.7 | 0.00 | 0.00 | 0.00 | 49 | 1010.4 |
| 20260504203419 | 24 | 253 | 8.0 | 9.7 | 0.00 | 0.00 | 0.00 | 49 | 1010.3 |
| 20260504202915 | 24 | 233 | 8.0 | 11.3 | 0.00 | 0.00 | 0.00 | 48 | 1010.4 |
| 20260504202412 | 24 | 199 | 6.4 | 8.0 | 0.00 | 0.00 | 0.00 | 47 | 1010.5 |
| 20260504201909 | 23 | 207 | 4.8 | 8.0 | 0.00 | 0.00 | 0.00 | 49 | 1010.6 |
| 20260504201406 | 25 | 243 | 4.8 | 9.7 | 0.00 | 0.00 | 0.00 | 48 | 1010.6 |
| 20260504200903 | 23 | 279 | 11.3 | 12.9 | 0.00 | 0.00 | 0.00 | 49 | 1010.4 |
| 20260504200400 | 23 | 244 | 8.0 | 12.9 | 0.00 | 0.00 | 0.00 | 50 | 1010.6 |
| 20260504195856 | 23 | 224 | 4.8 | 8.0 | 0.00 | 0.00 | 0.00 | 48 | 1010.7 |
| 20260504195352 | 22 | 208 | 8.0 | 11.3 | 0.00 | 0.00 | 0.00 | 53 | 1010.6 |
| 20260504194849 | 22 | 249 | 12.9 | 14.5 | 0.00 | 0.00 | 0.00 | 53 | 1010.5 |
| 20260504194345 | 22 | 254 | 11.3 | 12.9 | 0.00 | 0.00 | 0.00 | 53 | 1010.7 |
| 20260504193841 | 22 | 264 | 4.8 | 8.0 | 0.00 | 0.00 | 0.00 | 54 | 1010.3 |
| 20260504193338 | 23 | 209 | 6.4 | 11.3 | 0.00 | 0.00 | 0.00 | 51 | 1010.5 |
| 20260504192837 | 22 | 246 | 6.4 | 9.7 | 0.00 | 0.00 | 0.00 | 53 | 1010.7 |
| 20260504192335 | 22 | 249 | 4.8 | 8.0 | 0.00 | 0.00 | 0.00 | 50 | 1010.6 |
| 20260504191833 | 22 | 260 | 9.7 | 14.5 | 0.00 | 0.00 | 0.00 | 49 | 1010.5 |
| 20260504191330 | 22 | 238 | 11.3 | 12.9 | 0.00 | 0.00 | 0.00 | 50 | 1010.6 |
| 20260504190825 | 22 | 255 | 6.4 | 11.3 | 0.00 | 0.00 | 0.00 | 49 | 1010.9 |
| 20260504190322 | 23 | 246 | 6.4 | 8.0 | 0.00 | 0.00 | 0.00 | 47 | 1010.7 |
| 20260504185819 | 25 | 256 | 8.0 | 9.7 | 0.00 | 0.00 | 0.00 | 42 | 1010.6 |
| 20260504185316 | 23 | 326 | 3.2 | 4.8 | 0.00 | 0.00 | 0.00 | 41 | 1010.6 |
| 20260504184812 | 23 | 208 | 6.4 | 8.0 | 0.00 | 0.00 | 0.00 | 42 | 1010.8 |
| 20260504184308 | 23 | 245 | 3.2 | 4.8 | 0.00 | 0.00 | 0.00 | 41 | 1010.6 |
| 20260504183803 | 22 | 273 | 6.4 | 8.0 | 0.00 | 0.00 | 0.00 | 44 | 1010.7 |
| 20260504183301 | 23 | 193 | 4.8 | 8.0 | 0.00 | 0.00 | 0.00 | 42 | 1010.8 |
| 20260504182759 | 22 | 169 | 4.8 | 8.0 | 0.00 | 0.00 | 0.00 | 44 | 1010.9 |
| 20260504182255 | 21 | 281 | 1.6 | 3.2 | 0.00 | 0.00 | 0.00 | 47 | 1010.9 |
| 20260504181753 | 22 | 295 | 8.0 | 9.7 | 0.00 | 0.00 | 0.00 | 48 | 1010.9 |
| 20260504181250 | 21 | 257 | 4.8 | 4.8 | 0.00 | 0.00 | 0.00 | 50 | 1010.7 |
| 20260504180749 | 21 | 241 | 4.8 | 8.0 | 0.00 | 0.00 | 0.00 | 50 | 1011.0 |
| 20260504180247 | 22 | 280 | 9.7 | 11.3 | 0.00 | 0.00 | 0.00 | 49 | 1010.7 |
| 20260504175745 | 22 | 217 | 3.2 | 3.2 | 0.00 | 0.00 | 0.00 | 45 | 1010.8 |
| 20260504175241 | 22 | 197 | 6.4 | 8.0 | 0.00 | 0.00 | 0.00 | 46 | 1010.7 |
| 20260504174739 | 22 | 194 | 6.4 | 8.0 | 0.00 | 0.00 | 0.00 | 47 | 1010.7 |
| 20260504174237 | 22 | 279 | 3.2 | 4.8 | 0.00 | 0.00 | 0.00 | 47 | 1010.7 |
| 20260504173733 | 22 | 285 | 3.2 | 4.8 | 0.00 | 0.00 | 0.00 | 47 | 1010.8 |
| 20260504173230 | 21 | 253 | 4.8 | 4.8 | 0.00 | 0.00 | 0.00 | 51 | 1010.7 |
| 20260504172727 | 21 | 253 | 6.4 | 8.0 | 0.00 | 0.00 | 0.00 | 52 | 1010.8 |
| 20260504172223 | 21 | 244 | 8.0 | 9.7 | 0.00 | 0.00 | 0.00 | 50 | 1011.0 |
| 20260504171720 | 22 | 240 | 8.0 | 8.0 | 0.00 | 0.00 | 0.00 | 50 | 1010.8 |
| 20260504171217 | 21 | 293 | 0.0 | 0.0 | 0.00 | 0.00 | 0.00 | 50 | 1010.6 |
| 20260504170714 | 21 | 256 | 4.8 | 8.0 | 0.00 | 0.00 | 0.00 | 49 | 1010.8 |
| 20260504170211 | 21 | 227 | 1.6 | 3.2 | 0.00 | 0.00 | 0.00 | 50 | 1010.8 |
| 20260504160129 | 19 | 39 | 1.6 | 3.2 | 0.00 | 0.00 | 0.00 | 64 | 1010.7 |
| 20260504151057 | 16 | 267 | 0.0 | 0.0 | 0.00 | 0.00 | 0.00 | 73 | 1010.2 |
| 20260504150554 | 16 | 257 | 1.6 | 1.6 | 0.00 | 0.00 | 0.00 | 74 | 1010.1 |
| 20260504141020 | 15 | 22 | 1.6 | 1.6 | 0.00 | 0.00 | 0.00 | 82 | 1010.0 |
| 20260504140517 | 14 | 34 | 0.0 | 0.0 | 0.00 | 0.00 | 0.00 | 82 | 1009.9 |
| 20260504130441 | 13 | 354 | 0.0 | 0.0 | 0.00 | 0.00 | 0.00 | 83 | 1009.4 |
| 20260504110323 | 13 | 349 | 0.0 | 0.0 | 0.00 | 0.00 | 0.00 | 76 | 1009.2 |
| 20260504100240 | 13 | 341 | 0.0 | 0.0 | 0.00 | 0.00 | 0.00 | 73 | 1009.3 |
| 20260504081633 | 18 | 23 | 0.0 | 0.0 | 0.00 | 0.00 | 0.00 | 56 | 1009.1 |
| 20260504081129 | 18 | 26 | 0.0 | 0.0 | 0.00 | 0.00 | 0.00 | 56 | 1009.2 |
| 20260504080626 | 18 | 6 | 0.0 | 0.0 | 0.00 | 0.00 | 0.00 | 56 | 1009.4 |
| 20260504080123 | 18 | 21 | 0.0 | 0.0 | 0.00 | 0.00 | 0.00 | 57 | 1009.3 |
| 20260504050439 | 21 | 51 | 0.0 | 0.0 | 0.00 | 0.00 | 0.00 | 46 | 1009.2 |
| 20260504045936 | 21 | 282 | 0.0 | 0.0 | 0.00 | 0.00 | 0.00 | 46 | 1009.0 |
| 20260504045432 | 21 | 327 | 0.0 | 0.0 | 0.00 | 0.00 | 0.00 | 44 | 1009.3 |
| 20260504044928 | 21 | 342 | 0.0 | 0.0 | 0.00 | 0.00 | 0.00 | 44 | 1009.0 |
| 20260504044426 | 21 | 336 | 0.0 | 0.0 | 0.00 | 0.00 | 0.00 | 43 | 1009.3 |
| 20260504043923 | 21 | 333 | 0.0 | 0.0 | 0.00 | 0.00 | 0.00 | 44 | 1008.9 |
| 20260504043420 | 20 | 327 | 0.0 | 0.0 | 0.00 | 0.00 | 0.00 | 43 | 1009.1 |
| 20260504042917 | 20 | 322 | 0.0 | 0.0 | 0.00 | 0.00 | 0.00 | 43 | 1009.2 |
| 20260504042414 | 20 | 328 | 0.0 | 0.0 | 0.00 | 0.00 | 0.00 | 43 | 1009.0 |
| 20260504041910 | 21 | 333 | 0.0 | 0.0 | 0.00 | 0.00 | 0.00 | 42 | 1009.1 |
| 20260504041406 | 21 | 335 | 0.0 | 0.0 | 0.00 | 0.00 | 0.00 | 41 | 1009.2 |
| 20260504040903 | 21 | 4 | 0.0 | 0.0 | 0.00 | 0.00 | 0.00 | 40 | 1008.8 |
| 20260504040400 | 21 | 0 | 0.0 | 1.6 | 0.00 | 0.00 | 0.00 | 40 | 1008.9 |
| 20260504035856 | 21 | 342 | 1.6 | 1.6 | 0.00 | 0.00 | 0.00 | 40 | 1008.8 |
| 20260504035354 | 21 | 349 | 3.2 | 3.2 | 0.00 | 0.00 | 0.00 | 39 | 1009.0 |
| 20260504034850 | 22 | 319 | 1.6 | 3.2 | 0.00 | 0.00 | 0.00 | 39 | 1008.7 |
| 20260504034348 | 22 | 318 | 1.6 | 1.6 | 0.00 | 0.00 | 0.00 | 39 | 1008.9 |
| 20260504033844 | 22 | 324 | 1.6 | 1.6 | 0.00 | 0.00 | 0.00 | 39 | 1008.9 |
| 20260504033343 | 22 | 339 | 3.2 | 3.2 | 0.00 | 0.00 | 0.00 | 38 | 1008.9 |
| 20260504032839 | 22 | 330 | 4.8 | 4.8 | 0.00 | 0.00 | 0.00 | 38 | 1009.0 |
| 20260504032336 | 22 | 316 | 3.2 | 3.2 | 0.00 | 0.00 | 0.00 | 38 | 1008.8 |
| 20260504031833 | 22 | 306 | 4.8 | 8.0 | 0.00 | 0.00 | 0.00 | 39 | 1008.8 |
| 20260504031330 | 22 | 336 | 3.2 | 3.2 | 0.00 | 0.00 | 0.00 | 39 | 1008.8 |
| 20260504030826 | 22 | 330 | 3.2 | 3.2 | 0.00 | 0.00 | 0.00 | 40 | 1008.7 |
| 20260504030324 | 22 | 304 | 1.6 | 3.2 | 0.00 | 0.00 | 0.00 | 41 | 1009.0 |
| 20260504025820 | 22 | 328 | 3.2 | 3.2 | 0.00 | 0.00 | 0.00 | 41 | 1009.0 |
| 20260504025317 | 22 | 331 | 6.4 | 8.0 | 0.00 | 0.00 | 0.00 | 42 | 1008.8 |
| 20260504024814 | 22 | 326 | 1.6 | 1.6 | 0.00 | 0.00 | 0.00 | 44 | 1008.8 |
| 20260504024310 | 22 | 309 | 4.8 | 4.8 | 0.00 | 0.00 | 0.00 | 45 | 1008.9 |
| 20260504023807 | 23 | 312 | 3.2 | 4.8 | 0.00 | 0.00 | 0.00 | 44 | 1009.0 |
| 20260504023303 | 23 | 342 | 4.8 | 8.0 | 0.00 | 0.00 | 0.00 | 45 | 1008.9 |
| 20260504022759 | 23 | 323 | 1.6 | 3.2 | 0.00 | 0.00 | 0.00 | 44 | 1009.0 |
| 20260504022256 | 23 | 310 | 1.6 | 1.6 | 0.00 | 0.00 | 0.00 | 45 | 1009.1 |
| 20260504021753 | 23 | 332 | 4.8 | 8.0 | 0.00 | 0.00 | 0.00 | 44 | 1009.0 |
| 20260504021250 | 23 | 331 | 8.0 | 9.7 | 0.00 | 0.00 | 0.00 | 44 | 1008.9 |
| 20260504020747 | 23 | 330 | 4.8 | 8.0 | 0.00 | 0.00 | 0.00 | 45 | 1009.2 |
| 20260504020243 | 23 | 319 | 1.6 | 4.8 | 0.00 | 0.00 | 0.00 | 44 | 1009.2 |
| 20260504015739 | 23 | 344 | 3.2 | 4.8 | 0.00 | 0.00 | 0.00 | 45 | 1009.1 |
| 20260504015236 | 24 | 331 | 9.7 | 12.9 | 0.00 | 0.00 | 0.00 | 44 | 1009.2 |
| 20260504014732 | 23 | 298 | 6.4 | 9.7 | 0.00 | 0.00 | 0.00 | 44 | 1009.3 |
| 20260504014229 | 24 | 311 | 9.7 | 11.3 | 0.00 | 0.00 | 0.00 | 43 | 1009.2 |
| 20260504013726 | 24 | 327 | 3.2 | 4.8 | 0.00 | 0.00 | 0.00 | 43 | 1009.2 |
| 20260504013224 | 24 | 322 | 4.8 | 4.8 | 0.00 | 0.00 | 0.00 | 42 | 1009.3 |
| 20260504012720 | 23 | 326 | 9.7 | 12.9 | 0.00 | 0.00 | 0.00 | 43 | 1009.3 |
| 20260504012218 | 23 | 308 | 11.3 | 12.9 | 0.00 | 0.00 | 0.00 | 42 | 1009.4 |
| 20260504011715 | 23 | 323 | 9.7 | 11.3 | 0.00 | 0.00 | 0.00 | 41 | 1009.6 |
| 20260504011212 | 24 | 322 | 8.0 | 11.3 | 0.00 | 0.00 | 0.00 | 40 | 1009.4 |
| 20260504010708 | 24 | 335 | 9.7 | 14.5 | 0.00 | 0.00 | 0.00 | 39 | 1009.4 |
| 20260504010203 | 24 | 12 | 14.5 | 20.9 | 0.00 | 0.00 | 0.00 | 39 | 1009.8 |
| 20260504005700 | 23 | 328 | 9.7 | 14.5 | 0.00 | 0.00 | 0.00 | 40 | 1009.7 |
| 20260504005157 | 24 | 3 | 11.3 | 16.1 | 0.00 | 0.00 | 0.00 | 41 | 1009.7 |
| 20260504004655 | 24 | 10 | 6.4 | 9.7 | 0.00 | 0.00 | 0.00 | 42 | 1009.5 |
| 20260504004152 | 24 | 349 | 8.0 | 9.7 | 0.00 | 0.00 | 0.00 | 41 | 1009.7 |
| 20260504003648 | 24 | 330 | 9.7 | 11.3 | 0.00 | 0.00 | 0.00 | 43 | 1009.7 |
| 20260504003145 | 24 | 354 | 11.3 | 16.1 | 0.00 | 0.00 | 0.00 | 42 | 1009.6 |
| 20260504002642 | 24 | 353 | 6.4 | 8.0 | 0.00 | 0.00 | 0.00 | 42 | 1009.8 |
| 20260504002139 | 25 | 300 | 4.8 | 8.0 | 0.00 | 0.00 | 0.00 | 42 | 1009.7 |
| 20260504001637 | 25 | 2 | 9.7 | 14.5 | 0.00 | 0.00 | 0.00 | 42 | 1009.6 |
| 20260504001133 | 25 | 310 | 6.4 | 8.0 | 0.00 | 0.00 | 0.00 | 42 | 1009.6 |
| 20260504000630 | 26 | 326 | 8.0 | 9.7 | 0.00 | 0.00 | 0.00 | 42 | 1009.6 |
| 20260504000127 | 25 | 323 | 1.6 | 1.6 | 0.00 | 0.00 | 0.00 | 42 | 1009.9 |
| 20260503235626 | 25 | 294 | 4.8 | 9.7 | 0.00 | 0.00 | 0.00 | 44 | 1009.8 |
| 20260503235122 | 25 | 318 | 3.2 | 4.8 | 0.00 | 0.00 | 0.00 | 44 | 1009.8 |
| 20260503234620 | 25 | 311 | 6.4 | 11.3 | 0.00 | 0.00 | 0.00 | 44 | 1010.1 |
| 20260503234118 | 25 | 313 | 1.6 | 1.6 | 0.00 | 0.00 | 0.00 | 44 | 1010.0 |
| 20260503233615 | 25 | 341 | 4.8 | 4.8 | 0.00 | 0.00 | 0.00 | 44 | 1010.0 |
| 20260503233110 | 25 | 309 | 6.4 | 8.0 | 0.00 | 0.00 | 0.00 | 44 | 1010.1 |
| 20260503232607 | 25 | 342 | 6.4 | 12.9 | 0.00 | 0.00 | 0.00 | 45 | 1010.1 |
| 20260503232105 | 25 | 297 | 9.7 | 12.9 | 0.00 | 0.00 | 0.00 | 44 | 1010.3 |
| 20260503231603 | 26 | 318 | 6.4 | 8.0 | 0.00 | 0.00 | 0.00 | 43 | 1010.4 |
| 20260503231059 | 25 | 317 | 3.2 | 3.2 | 0.00 | 0.00 | 0.00 | 44 | 1010.5 |
| 20260503230555 | 25 | 19 | 3.2 | 3.2 | 0.00 | 0.00 | 0.00 | 44 | 1010.6 |
| 20260503230053 | 25 | 326 | 3.2 | 3.2 | 0.00 | 0.00 | 0.00 | 43 | 1010.5 |
| 20260503225550 | 25 | 348 | 11.3 | 12.9 | 0.00 | 0.00 | 0.00 | 44 | 1010.5 |
| 20260503225045 | 25 | 332 | 11.3 | 12.9 | 0.00 | 0.00 | 0.00 | 44 | 1010.7 |
| 20260503224543 | 26 | 261 | 4.8 | 8.0 | 0.00 | 0.00 | 0.00 | 42 | 1010.7 |
| 20260503224040 | 25 | 327 | 6.4 | 9.7 | 0.00 | 0.00 | 0.00 | 45 | 1010.9 |
| 20260503223539 | 25 | 313 | 6.4 | 9.7 | 0.00 | 0.00 | 0.00 | 44 | 1011.1 |
| 20260503223033 | 24 | 294 | 3.2 | 3.2 | 0.00 | 0.00 | 0.00 | 45 | 1011.1 |
| 20260503222532 | 24 | 338 | 14.5 | 17.7 | 0.00 | 0.00 | 0.00 | 46 | 1011.2 |
| 20260503222030 | 25 | 298 | 8.0 | 12.9 | 0.00 | 0.00 | 0.00 | 45 | 1011.0 |
| 20260503221528 | 24 | 348 | 11.3 | 14.5 | 0.00 | 0.00 | 0.00 | 45 | 1011.4 |
| 20260503221025 | 24 | 30 | 8.0 | 11.3 | 0.00 | 0.00 | 0.00 | 45 | 1011.4 |
| 20260503220521 | 24 | 326 | 11.3 | 16.1 | 0.00 | 0.00 | 0.00 | 45 | 1011.2 |
| 20260503220018 | 24 | 326 | 4.8 | 4.8 | 0.00 | 0.00 | 0.00 | 45 | 1011.5 |
| 20260503215515 | 23 | 321 | 3.2 | 4.8 | 0.00 | 0.00 | 0.00 | 48 | 1011.4 |